Regional Weather Roundup
Issued by NWS

Home | Current Version | Previous Version | Graphics & Text | Print | Product List | Glossary On
Versions: 1 2 3 4 5 6 7 8 9 10 11 12 13 14 15 16 17 18 19 20 21 22 23 24 25 26 27
000
ASUS45 KCYS 011510
RWRWY

WYOMING REGIONAL WEATHER ROUNDUP
NATIONAL WEATHER SERVICE CHEYENNE WY
900 AM MDT SUN MAY 01 2016

NOTE:  "FAIR" INDICATES FEW OR NO CLOUDS BELOW 12,000 FEET
WITH NO SIGNIFICANT WEATHER AND/OR OBSTRUCTIONS TO VISIBILITY.

WYZ001-011600-
YELLOWSTONE NATIONAL PARK

CITY           SKY/WX    TMP DP  RH WIND       PRES   REMARKS
LK YELLOWSTONE   N/A     35  18  49 VRB6      30.32R WCI  30
W YELLOWSTONE  NOT AVBL

$$
WYZ002>013-054>058-071-098>099-011600-
NORTHERN WYOMING

CITY           SKY/WX    TMP DP  RH WIND       PRES   REMARKS
JACKSON        MOSUNNY   41  19  42 N14G24    30.26S
CODY           FAIR      45  32  61 N10       30.33S
GREYBULL       FAIR      45  34  65 CALM      30.33R
WORLAND        FAIR      44  34  67 CALM      30.33R
SHERIDAN       FAIR      48  37  65 SW3       30.36R
BUFFALO          N/A    N/A N/A N/A MISG      30.35S
GILLETTE       FAIR      44  30  57 E3        30.35R
HULETT         FAIR      43  28  56 N5        30.36R
NEWCASTLE      FAIR      43  27  52 N8        30.34S

$$
WYZ014>020-022>026-101>103-011600-
CENTRAL WYOMING

CITY           SKY/WX    TMP DP  RH WIND       PRES   REMARKS
BIG PINEY      FAIR      35  25  66 S6        30.28R WCI  30
PINEDALE       FAIR      36  25  64 NW5       30.27S WCI  32
DUBOIS         NOT AVBL
LANDER         CLOUDY    37  31  78 NW5       30.33R WCI  33
RIVERTON       CLOUDY    37  31  78 SE7       30.35R WCI  32
CASPER         FAIR      38  28  67 E9        30.33S WCI  31
DOUGLAS        FAIR      42  31  64 VRB6      30.35R

$$
WYZ021-027>030-104>119-011600-
SOUTHERN WYOMING

CITY           SKY/WX    TMP DP  RH WIND       PRES   REMARKS
EVANSTON       FAIR      33  21  61 E31G44    30.18R WCI  19
KEMMERER       PTSUNNY   32  27  80 E26G33    30.24R WCI  18
FORT BRIDGER   MOSUNNY   34  28  80 E21G29    30.27R WCI  22
ROCK SPRINGS   FAIR      34  22  61 NE33G40   30.25R WCI  20
DIXON          FAIR      39  21  48 E24G31    30.23S WCI  29
RAWLINS        CLOUDY    33  24  69 E16       30.30R WCI  23
SARATOGA       CLOUDY    34  21  60 NE13G20   30.28S WCI  25
LARAMIE        CLOUDY    29  22  75 NE10      30.29R WCI  20
CHEYENNE       CLOUDY    33  27  78 N8        30.31R WCI  26
TORRINGTON     CLOUDY    42  28  57 N14       30.32R
PINE BLUFFS    CLOUDY    34  32  93 NW13      30.32R WCI  25

$$




USA.gov is the U.S. government's official web portal to all federal, state and local government web resources and services.